STARLINK-3766, 52296

Orbit data source: Space-Track

STARLINK-3766, 52296 is a payload satellite owned by SpaceX/Seattle (US) in LEO that was launched on Thu, 21 Apr 2022 UTC via an FALCON 9 launch vehicle from the Air Force Eastern Test Range (AFETR). Payload-class satellites include a variety of spacecraft equipped with specific instruments for various scientific and technological missions. These include communications satellites like Starlink; space stations such as the ISS; scientific satellites like the Hubble; Earth observation satellites from companies like Planet Labs, Umbra, and HawkEye 360; GPS; miniature CubeSats for education and research; and military/defense satellites.

Loading next visibility...
Identifier
52296, 2022-041AM
Orbit
LEO
Country
Flag of USUS
Related business
Manufacturer
SpaceX/Seattle
Mission
Operational Commercial Communications
Bus & Motor
STARLINK, Unknown motor
Mass
297 kg wet, ~275 kg dry
Launch date (UTC)
2022-04-21 (4 years ago)
Launch vehicle
FALCON 9
Launch site
Air Force Eastern Test Range (AFETR)
Object type
Payload
Rocket body
Debris
Shape & HBR
Box + 1 Pan, 10.1 m
Radar Cross Section
11.087 m², Large (>1 m²)

Expand to show TLE details & history
Last TLE update: 1 day ago

TLE from 1 day ago
0 STARLINK-3766
1 52296U 22041AM  26129.47706858  .00000967  00000-0  78844-4 0  9995
2 52296  53.2168 186.2383 0001121  85.2253 274.8867 15.08841737223689
Epoch: 2026-05-09T11:26Z
TLE epoch observation values (Epoch: 2026-05-09T11:26:58.725Z)
Latitude
-0.00003°
Longitude
147.19965°
Altitude
540.57 km
Speed
7.593 km/s
True Right ascension
12h 24m 57s
True Declination
0° 00' 00"
Sunlit
Object was in full shadow at epoch
Visualization orbit readout
Latitude
Unknown
Longitude
Unknown
Altitude
Unknown
Speed
Unknown
Apparent Right ascension
Unknown
Apparent Declination
Unknown
Sunlit
N/A
Visualization observer readout
Local Sidereal Time
21:22:05
Azimuth
Unknown
Elevation
Unknown
Doppler factor
Unknown
Orbital elements
Apogee altitude
540.759 km
Perigee altitude
539.208 km
Semi-major axis
6,918.12 km
Eccentricity
0.00011
Inclination
53.2168°
RAAN
186.2383°
Arg. of periapsis
85.2253°
True anomaly
274.8739°
Mean anomaly
274.8867°
Eccentric anomaly
274.8803°
Mean motion
3.77191 °/min
Orbital period
95.44 mins
BSTAR
0.000078844
Loading maneuver chart data...
Computing Atmospheric mass density...
Loading historical data...
Loading historical data...
Loading historical data...
Loading historical data...
Loading historical data...
Loading historical data...
Loading historical data...

Documentation

Showing up to 5 results
|